When you browse on this site, cookies collect data to enhance your experience and personalize the content and advertising you see.
Visit our Privacy Policy to learn more. By continuing to use the site, you agree to this use of cookies and data.
  • In Latvia
  • List of Countries
  • For 7 days
  • Water Temperature
  • Weather Map
  • Weather Widgets
  • user-avatar
    Login

    Hourly Weather Aleksandrov Gay

    Today, 20 August, Tuesday

    Time Temperature Precipitation Wind Pressure Humidity
    00:00 +30°C° 0 mm 4 mps 761 mmHg 26%
    01:00 +30°C° 0 mm 4 mps 761 mmHg 27%
    02:00 +29°C° 0 mm 3 mps 761 mmHg 28%
    03:00 +28°C° 0 mm 3 mps 762 mmHg 30%
    04:00 +28°C° 0 mm 3 mps 762 mmHg 31%
    05:00 +28°C° 0 mm 2 mps 762 mmHg 32%
    06:00 +28°C° 0 mm 2 mps 762 mmHg 33%
    07:00 +30°C° 0 mm 3 mps 762 mmHg 29%
    08:00 +33°C° 0 mm 3 mps 762 mmHg 25%
    09:00 +35°C° 0 mm 3 mps 762 mmHg 21%
    10:00 +37°C° 0 mm 4 mps 762 mmHg 18%
    11:00 +38°C° 0 mm 4 mps 762 mmHg 16%
    12:00 +40°C° 0 mm 4 mps 762 mmHg 14%
    13:00 +40°C° 0 mm 4 mps 761 mmHg 13%
    14:00 +41°C° 0 mm 4 mps 761 mmHg 12%
    15:00 +41°C° 0 mm 4 mps 761 mmHg 12%
    16:00 +39°C° 0 mm 3 mps 760 mmHg 14%
    17:00 +39°C° 0 mm 2 mps 760 mmHg 16%
    18:00 +37°C° 0 mm 1 mps 760 mmHg 18%
    19:00 +35°C° 0 mm 1 mps 760 mmHg 19%
    20:00 +33°C° 0 mm 1 mps 760 mmHg 19%
    21:00 +31°C° 0 mm 1 mps 760 mmHg 20%
    22:00 +31°C° 0 mm 1 mps 760 mmHg 20%
    23:00 +30°C° 0 mm 2 mps 760 mmHg 21%

    Tomorrow, 21 August, Wednesday

    Time Temperature Precipitation Wind Pressure Humidity
    00:00 +30°C° 0 mm 2 mps 760 mmHg 21%
    01:00 +29°C° 0 mm 2 mps 760 mmHg 22%
    02:00 +29°C° 0 mm 2 mps 760 mmHg 24%
    03:00 +28°C° 0 mm 3 mps 760 mmHg 25%
    04:00 +28°C° 0 mm 3 mps 760 mmHg 27%
    05:00 +27°C° 0 mm 3 mps 760 mmHg 29%
    06:00 +27°C° 0 mm 4 mps 759 mmHg 31%
    07:00 +29°C° 0 mm 4 mps 760 mmHg 29%
    08:00 +30°C° 0 mm 5 mps 760 mmHg 28%
    09:00 +33°C° 0 mm 5 mps 760 mmHg 27%
    10:00 +34°C° 0 mm 5 mps 760 mmHg 27%
    11:00 +36°C° 0 mm 5 mps 760 mmHg 27%
    12:00 +37°C° 0 mm 5 mps 760 mmHg 28%
    13:00 +37°C° 0 mm 5 mps 759 mmHg 28%
    14:00 +38°C° 0 mm 6 mps 759 mmHg 29%
    15:00 +38°C° 0 mm 6 mps 759 mmHg 30%
    16:00 +36°C° 0 mm 6 mps 759 mmHg 31%
    17:00 +36°C° 0 mm 6 mps 759 mmHg 33%
    18:00 +35°C° 0 mm 6 mps 759 mmHg 34%
    19:00 +33°C° 0 mm 6 mps 759 mmHg 38%
    20:00 +32°C° 0 mm 7 mps 760 mmHg 42%
    21:00 +29°C° 0 mm 7 mps 760 mmHg 46%
    22:00 +29°C° 0 mm 6 mps 760 mmHg 48%
    23:00 +28°C° 0 mm 6 mps 760 mmHg 50%

    Day after tomorrow, 22 August, Thursday

    Time Temperature Precipitation Wind Pressure Humidity
    00:00 +27°C° 0 mm 6 mps 760 mmHg 53%
    01:00 +27°C° 0 mm 6 mps 760 mmHg 57%
    02:00 +26°C° 0 mm 6 mps 761 mmHg 61%
    03:00 +24°C° 0 mm 6 mps 761 mmHg 66%
    04:00 +24°C° 0 mm 6 mps 761 mmHg 68%
    05:00 +23°C° 0 mm 6 mps 761 mmHg 69%
    06:00 +23°C° 0 mm 7 mps 761 mmHg 71%
    07:00 +24°C° 0 mm 6 mps 761 mmHg 65%
    08:00 +26°C° 0 mm 6 mps 761 mmHg 59%
    09:00 +28°C° 0 mm 6 mps 761 mmHg 53%
    10:00 +30°C° 0 mm 6 mps 761 mmHg 46%
    11:00 +32°C° 0 mm 6 mps 761 mmHg 39%
    12:00 +34°C° 0 mm 5 mps 760 mmHg 32%
    13:00 +35°C° 0 mm 5 mps 760 mmHg 30%
    14:00 +35°C° 0 mm 5 mps 760 mmHg 28%
    15:00 +36°C° 0 mm 4 mps 760 mmHg 26%
    16:00 +35°C° 0 mm 4 mps 760 mmHg 27%
    17:00 +35°C° 0 mm 3 mps 759 mmHg 28%
    18:00 +34°C° 0 mm 3 mps 759 mmHg 28%
    19:00 +33°C° 0 mm 3 mps 759 mmHg 30%
    20:00 +32°C° 0 mm 4 mps 760 mmHg 32%
    21:00 +29°C° 0 mm 4 mps 760 mmHg 34%
    22:00 +29°C° 0 mm 4 mps 760 mmHg 36%
    23:00 +28°C° 0 mm 4 mps 760 mmHg 37%

    23 August, Friday

    Time Temperature Precipitation Wind Pressure Humidity
    00:00 +27°C° 0 mm 4 mps 760 mmHg 39%
    01:00 +27°C° 0 mm 3 mps 760 mmHg 41%
    02:00 +26°C° 0 mm 3 mps 760 mmHg 42%
    03:00 +26°C° 0 mm 3 mps 760 mmHg 44%
    04:00 +26°C° 0 mm 3 mps 760 mmHg 44%
    05:00 +26°C° 0 mm 3 mps 760 mmHg 44%
    06:00 +26°C° 0 mm 3 mps 760 mmHg 44%
    07:00 +28°C° 0 mm 3 mps 760 mmHg 39%
    08:00 +30°C° 0 mm 3 mps 760 mmHg 34%
    09:00 +33°C° 0 mm 3 mps 761 mmHg 28%
    10:00 +34°C° 0 mm 3 mps 760 mmHg 26%
    11:00 +36°C° 0 mm 3 mps 760 mmHg 24%
    12:00 +37°C° 0 mm 3 mps 760 mmHg 22%
    13:00 +38°C° 0 mm 3 mps 760 mmHg 21%
    14:00 +39°C° 0 mm 3 mps 759 mmHg 20%
    15:00 +39°C° 0 mm 2 mps 759 mmHg 18%
    16:00 +38°C° 0 mm 3 mps 759 mmHg 20%
    17:00 +38°C° 0 mm 4 mps 759 mmHg 21%
    18:00 +37°C° 0 mm 5 mps 759 mmHg 22%
    19:00 +35°C° 0.6 mm 4 mps 759 mmHg 29%
    20:00 +33°C° 0.6 mm 3 mps 760 mmHg 36%
    21:00 +30°C° 0.6 mm 2 mps 760 mmHg 42%
    22:00 +29°C° 0.2 mm 3 mps 760 mmHg 44%
    23:00 +29°C° 0.2 mm 3 mps 760 mmHg 45%

    24 August, Saturday

    Time Temperature Precipitation Wind Pressure Humidity
    00:00 +28°C° 0.2 mm 4 mps 760 mmHg 47%
    01:00 +28°C° 0.1 mm 3 mps 760 mmHg 47%
    02:00 +27°C° 0.1 mm 3 mps 760 mmHg 46%
    03:00 +27°C° 0.1 mm 3 mps 760 mmHg 46%
    04:00 +27°C° 0 mm 3 mps 760 mmHg 46%
    05:00 +27°C° 0 mm 2 mps 760 mmHg 45%
    06:00 +27°C° 0 mm 2 mps 760 mmHg 45%
    07:00 +28°C° 0 mm 2 mps 760 mmHg 40%
    08:00 +30°C° 0 mm 2 mps 760 mmHg 35%
    09:00 +32°C° 0 mm 2 mps 760 mmHg 30%
    10:00 +34°C° 0 mm 2 mps 760 mmHg 27%
    11:00 +36°C° 0 mm 2 mps 760 mmHg 24%
    12:00 +37°C° 0 mm 2 mps 760 mmHg 21%
    13:00 +37°C° 0 mm 2 mps 760 mmHg 20%
    14:00 +38°C° 0 mm 2 mps 759 mmHg 20%
    15:00 +38°C° 0 mm 2 mps 759 mmHg 19%
    16:00 +37°C° 0 mm 2 mps 759 mmHg 21%
    17:00 +37°C° 0 mm 3 mps 759 mmHg 23%
    18:00 +36°C° 0 mm 3 mps 759 mmHg 24%
    19:00 +34°C° 0.1 mm 4 mps 759 mmHg 29%
    20:00 +33°C° 0.1 mm 5 mps 760 mmHg 34%
    21:00 +30°C° 0.1 mm 6 mps 760 mmHg 40%
    22:00 +29°C° 0.1 mm 6 mps 760 mmHg 43%
    23:00 +28°C° 0.1 mm 6 mps 760 mmHg 47%

    25 August, Sunday

    Time Temperature Precipitation Wind Pressure Humidity
    00:00 +27°C° 0.1 mm 6 mps 761 mmHg 51%
    01:00 +26°C° 0.4 mm 6 mps 761 mmHg 56%
    02:00 +24°C° 0.4 mm 6 mps 761 mmHg 60%
    03:00 +23°C° 0.4 mm 5 mps 761 mmHg 65%
    04:00 +23°C° 0.1 mm 5 mps 761 mmHg 67%
    05:00 +23°C° 0.1 mm 5 mps 761 mmHg 68%
    06:00 +22°C° 0.1 mm 5 mps 761 mmHg 70%
    07:00 +25°C° 0.2 mm 5 mps 761 mmHg 63%
    08:00 +26°C° 0.2 mm 5 mps 761 mmHg 57%
    09:00 +28°C° 0.2 mm 4 mps 761 mmHg 50%
    10:00 +29°C° 0 mm 3 mps 761 mmHg 45%
    11:00 +31°C° 0 mm 3 mps 761 mmHg 40%
    12:00 +32°C° 0 mm 2 mps 760 mmHg 35%
    13:00 +33°C° 0 mm 1 mps 760 mmHg 32%
    14:00 +34°C° 0 mm 1 mps 760 mmHg 30%
    15:00 +34°C° 0 mm 1 mps 759 mmHg 28%
    16:00 +34°C° 0 mm 1 mps 759 mmHg 29%
    17:00 +35°C° 0 mm 2 mps 759 mmHg 31%
    18:00 +34°C° 0 mm 2 mps 759 mmHg 32%
    19:00 +32°C° 0 mm 2 mps 759 mmHg 35%
    20:00 +31°C° 0 mm 3 mps 759 mmHg 37%
    21:00 +30°C° 0 mm 3 mps 759 mmHg 40%
    22:00 +29°C° 0 mm 3 mps 759 mmHg 44%
    23:00 +28°C° 0 mm 4 mps 759 mmHg 47%
    Show more